星链-30885 (STARLINK-30885 )

导读

STARLINK-30885是美国太空探索技术公司(SpaceX)于2023年11月18日发射的星链(Starlink)项目卫星,属于低轨卫星互联网星座的组成部分。该卫星运行在近地轨道,主要为全球偏远地区、海洋等网络覆盖薄弱区域提供高速互联网接入服务,目前仍在轨正常工作,助力星链构建全球覆盖的卫星通信网络。

Basic Information
目录编号:
58361
目录名称:
STARLINK-30885
国际标识:
2023-177L
轨道中心:
EARTH
卫星名称:
星链-30885
卫星全名:
星链-30885 (STARLINK-30885 )
卫星状态:
在轨 (已飞行942 天)
发射日期:
2023-11-18 UTC
国别 :
美国 (US)
星等 :
--
Orbit Information
数据来源 国际轨道数据 AOE轨道数据
星历时间 2026-06-16T23:38:48+0800
23小时前
查看轨道信息
2026-06-17T02:00:00+0800
20小时前
查看轨道信息
半长轴 6861.166km 6861.096km
偏心率 0.00013 0.0001279
轨道倾角 43.001° 42.999°
近地点辐角 265.103° 249.446°
升交点赤经 151.615° 151.064°
平近点角 94.968° 290.529°
近地点 482.137km 482.081km
远地点 483.921km 483.837km
周期 94.266分钟 94.265分钟
每日圈数 15.275868 15.276101
Detailed Information
固有亮度:
5
最大亮度:
0.3
卫星平台:
Starlink v2.0 mini
覆盖范围:
全球
运营商:
太空探索技术公司
运营商所在国:
美国
制造商(研发单位):
太空探索技术公司
制造商所在国:
美国
使用方式:
暂无
Satellite Introduction
星链(Starlink)计划是由太空探索技术公司(SpaceX)提出的一个巨型低轨卫星互联网星座项目,计划在2019年至2024年间在太空搭建由约1.2万颗卫星组成的“星链”网络,其中1584颗将部署在地球上空550千米处的近地轨道,并从2020年开始工作。该卫星仍在工作。
2D Orbit Map
3D Orbit Map
Orbit Altitude Analysis Chart
Orbit Inclination Analysis Chart
Orbit Comprehensive Analysis Chart
View Comprehensive Chart